User: anonymous   Login
Location: Unspecified
(0.0000°N, 0.0000°E)
Time: 03:49:31
(UTC+01:00)
Language:

Cosmos 1092 Rocket - Orbit

View from above orbital plane
View from above orbital plane
View from above satellite
View from above satellite

Ground track
Ground track

The orbit data is extracted from the following two-line orbital elements,

1 11327U 79030B   14324.88345473  .00000101  00000-0  87474-4 0  8859
2 11327 082.9504 273.2831 0026255 289.8725 122.2942 13.76950541789873
Epoch (UTC): 20 November 2014 21:12:10
Eccentricity: 0.0026255
inclination: 82.9504°
perigee height: 955 km
apogee height: 994 km
right ascension of ascending node: 273.2831°
argument of perigee: 289.8725°
revolutions per day: 13.76950541
mean anomaly at epoch: 122.2942°
orbit number at epoch: 78987

The dashed part of the orbit path shows where the satellite is in the earth's shadow,  

DLR